2024-173B

Last updated on Fri Oct 25 2024 00:02:04 GMT+0000 (Coordinated Universal Time)

1 61228U 24173B 24298.51774185 .00048914 00000+0 18354-2 0 9997 2 61228 97.4010 11.0203 0012615 168.5038 191.6492 15.26982055 4622
UTC large
Height (km)
Speed (km/s)
/
Latitude / Longitude
Inclination (degrees)
Orbital Period (minutes)
Azimuth
Elevation
Range (km)
Doppler Factor

Next 0 passes for location: London (51.5072 / 0.1276)

Sorry there are no passes over London.